WetterOnline ( https://www.wetteronline.ch )

Wetter aktuell Bad Hersfeld

Aktuelles Wetter: Bad Hersfeld (273m)

6-stündlich | Neueste Meldungen
Ortszeit Temperatur Wetter
Do, 21.11. 19:00 3.6° C bedeckt
Do, 21.11. 13:00 4.7° C bedeckt
Do, 21.11. 7:00 3.9° C bedeckt
Do, 21.11. 1:00 2.9° C bedeckt
Mi, 20.11. 19:00 2.3° C bedeckt
Mi, 20.11. 13:00 2.6° C bewölkt
Mi, 20.11. 7:00 0.9° C bedeckt
Mi, 20.11. 1:00 0.2° C leicht bewölkt
Ortszeit Temperatur Wetter
Fr, 22.11. 0:30 2.7° C bedeckt
Fr, 22.11. 0:20 2.7° C bedeckt
Fr, 22.11. 0:10 2.7° C bedeckt
Fr, 22.11. 0:00 2.8° C Nebel
Do, 21.11. 23:50 2.8° C Nebel
Do, 21.11. 23:40 2.7° C bedeckt
Do, 21.11. 23:30 2.6° C wolkig
Do, 21.11. 23:00 2.8° C bewölkt
Do, 21.11. 22:30 2.8° C wolkig
Do, 21.11. 22:00 3.1° C bewölkt
Do, 21.11. 21:30 3.3° C bedeckt
Ortszeit Relative Feuchte Sichtweite
Do, 21.11. 19:00 97% 4.4 km
Do, 21.11. 13:00 95% 5.0 km
Do, 21.11. 7:00 94% 4.8 km
Do, 21.11. 1:00 94% 4.2 km
Mi, 20.11. 19:00 91% 7 km
Mi, 20.11. 13:00 89% 8 km
Mi, 20.11. 7:00 98% 4.1 km
Mi, 20.11. 1:00 98% 4.3 km
Ortszeit Relative Feuchte Sichtweite
Fr, 22.11. 0:30 97% 2.9 km
Fr, 22.11. 0:20 97% -
Fr, 22.11. 0:10 99% -
Fr, 22.11. 0:00 98% 0.4 km
Do, 21.11. 23:50 98% -
Do, 21.11. 23:40 98% -
Do, 21.11. 23:30 99% 1.7 km
Do, 21.11. 23:00 99% 1.2 km
Do, 21.11. 22:30 98% 1.4 km
Do, 21.11. 22:00 97% 2.8 km
Do, 21.11. 21:30 97% 3.8 km
Ortszeit Niederschlagsmenge Niederschlagsart
Do, 21.11. 19:00 0.1 l/m2 in 12 Std. -
Do, 21.11. 13:00 0.1 l/m2 in 6 Std. Sprühregen
Do, 21.11. 7:00 0.1 l/m2 in 12 Std. Sprühregen
Do, 21.11. 1:00 0.1 l/m2 in 6 Std. Sprühregen
Mi, 20.11. 19:00 0.0 l/m2 in 12 Std. -
Mi, 20.11. 13:00 0.0 l/m2 in 6 Std. -
Mi, 20.11. 7:00 0.0 l/m2 in 12 Std. -
Mi, 20.11. 1:00 0.0 l/m2 in 6 Std. -
Ortszeit Niederschlagsmenge Niederschlagsart
Fr, 22.11. 0:30 0.0 l/m2 in 1 Std. -
Fr, 22.11. 0:20 keine Meldung -
Fr, 22.11. 0:10 keine Meldung -
Fr, 22.11. 0:00 0.0 l/m2 in 1 Std. -
Do, 21.11. 23:50 keine Meldung -
Do, 21.11. 23:40 keine Meldung -
Do, 21.11. 23:30 0.0 l/m2 in 1 Std. -
Do, 21.11. 23:00 0.0 l/m2 in 1 Std. -
Do, 21.11. 22:30 0.0 l/m2 in 1 Std. -
Do, 21.11. 22:00 0.0 l/m2 in 1 Std. -
Do, 21.11. 21:30 0.0 l/m2 in 1 Std. -
Ortszeit Stärke Spitze Richtung
km/h Bft. km/h Grad Sektor
Do, 21.11. 19:00 2 1 7 150° SO
Do, 21.11. 13:00 2 1 13 330° NW
Do, 21.11. 7:00 6 1 11 50° NO
Do, 21.11. 1:00 4 1 11 30° NO
Mi, 20.11. 19:00 0 0 14 - -
Mi, 20.11. 13:00 11 2 14 350° N
Mi, 20.11. 7:00 4 1 11 30° NO
Mi, 20.11. 1:00 4 1 7 170° S
Ortszeit Stärke Spitze Richtung
km/h Bft. km/h Grad Sektor
Fr, 22.11. 0:30 0 0 4 - -
Fr, 22.11. 0:20 0 0 - 240° SW
Fr, 22.11. 0:10 2 1 - 140° SO
Fr, 22.11. 0:00 4 1 4 60° NO
Do, 21.11. 23:50 4 1 - 60° NO
Do, 21.11. 23:40 4 1 - 30° NO
Do, 21.11. 23:30 2 1 6 340° N
Do, 21.11. 23:00 4 1 7 200° S
Do, 21.11. 22:30 4 1 4 250° W
Do, 21.11. 22:00 0 0 7 - -
Do, 21.11. 21:30 0 0 7 - -
Ortszeit Untergrenze Bedeckung Gattung
total tief tief mittel hoch
Do, 21.11. 19:00 3000 m 8/8 8/8 - - -
Do, 21.11. 13:00 90 m 8/8 8/8 - - -
Do, 21.11. 7:00 30 m 8/8 8/8 - - -
Do, 21.11. 1:00 210 m 8/8 8/8 - - -
Mi, 20.11. 19:00 600 m 8/8 8/8 - - -
Mi, 20.11. 13:00 210 m 7/8 7/8 - - -
Mi, 20.11. 7:00 60 m 8/8 8/8 - - -
Mi, 20.11. 1:00 30 m 1/8 4/8 - - -
Ortszeit Bedeckungsgrad in Achtel und Wolkenuntergrenze
Fr, 22.11. 0:30 8(2400m) 8(3600m)
Fr, 22.11. 0:20 8(2400m) 8(3600m)
Fr, 22.11. 0:10 2(<30m) 8(2400m)
Fr, 22.11. 0:00 7(<30m) 8(2400m) 8(2700m)
Do, 21.11. 23:50 7(<30m) 8(2400m) 8(2700m)
Do, 21.11. 23:40 7(<30m) 7(2100m) 8(2400m)
Do, 21.11. 23:30 3(<30m) 8(3300m) 8(3900m)
Do, 21.11. 23:00 5(<30m) 8(3300m) 8(4200m)
Do, 21.11. 22:30 2(30m) 8(3600m) 8(4500m)
Do, 21.11. 22:00 7(30m) 8(3000m) 8(4500m)
Do, 21.11. 21:30 8(3000m) 8(4500m) 8(4500m)
Ortszeit Luftdruck NN (hPa) Tendenz (hPa in 3 Std.)
Do, 21.11. 19:00 1010 0,0
Do, 21.11. 13:00 1011 - 1,3
Do, 21.11. 7:00 1012 - 1,1
Do, 21.11. 1:00 1014 - 1,2
Mi, 20.11. 19:00 1017 - 0,4
Mi, 20.11. 13:00 1018 - 1,3
Mi, 20.11. 7:00 1020 - 0,6
Mi, 20.11. 1:00 1021 + 0,2
Ortszeit Luftdruck NN (hPa) Tendenz (hPa in 3 Std.)
Fr, 22.11. 0:30 1010 - 0,2
Fr, 22.11. 0:20 1010 keine Meldung
Fr, 22.11. 0:10 1010 keine Meldung
Fr, 22.11. 0:00 1010 - 0,3
Do, 21.11. 23:50 1010 keine Meldung
Do, 21.11. 23:40 1010 keine Meldung
Do, 21.11. 23:30 1010 - 0,3
Do, 21.11. 23:00 1010 - 0,1
Do, 21.11. 22:30 1010 0,0
Do, 21.11. 22:00 1010 + 0,1
Do, 21.11. 21:30 1010 + 0,1
Ortszeit Schneehöhe (cm)
Do, 21.11. 19:00 0
Do, 21.11. 13:00 0
Do, 21.11. 7:00 0
Do, 21.11. 1:00 0
Mi, 20.11. 19:00 0
Mi, 20.11. 13:00 0
Mi, 20.11. 7:00 0
Mi, 20.11. 1:00 0
Ortszeit Schneehöhe (cm)
Fr, 22.11. 0:30 0
Fr, 22.11. 0:20 0
Fr, 22.11. 0:10 0
Fr, 22.11. 0:00 0
Do, 21.11. 23:50 0
Do, 21.11. 23:40 0
Do, 21.11. 23:30 0
Do, 21.11. 23:00 0
Do, 21.11. 22:30 0
Do, 21.11. 22:00 0
Do, 21.11. 21:30 0
Link zu dieser Seite / Seite empfehlen

Das Wetter in ...